This is the latest recevied weather packets stored in our database for station/object NK0Z-13. If no packets are shown the sender has not sent any weather packets the latest 10 day(s).
| Time | Temp. | Humidity | Pressure | Rain* | Wind** | Luminosity | Snow |
|---|---|---|---|---|---|---|---|
| 1777218816 | 16.67° C | 94% | 1008.8 hPa | 0 mm | - | 150 W/m² | - |
| 1777218214 | 16.11° C | 95% | 1009.4 hPa | 0 mm | - | 219 W/m² | - |
| 1777217611 | 15.56° C | 96% | 1009.6 hPa | 0 mm | - | 158 W/m² | - |
| 1777217009 | 15° C | 96% | 1009.7 hPa | 0 mm | - | 217 W/m² | - |
| 1777216408 | 15° C | 97% | 1009.7 hPa | 0 mm | - | 142 W/m² | - |
| 1777215802 | 14.44° C | 98% | 1010 hPa | 0 mm | - | 161 W/m² | - |
| 1777215201 | 13.89° C | 98% | 1010.3 hPa | 0 mm | - | 218 W/m² | - |
| 1777214595 | 13.33° C | 99% | 1010.5 hPa | 0 mm | - | 156 W/m² | - |
| 1777213995 | 13.33° C | 99% | 1010.6 hPa | 0 mm | - | 120 W/m² | - |
| 1777213392 | 12.78° C | 99% | 1010.6 hPa | 0 mm | - | 114 W/m² | - |
| 1777212792 | 12.78° C | 99% | 1010.7 hPa | 0 mm | - | 94 W/m² | - |
| 1777212189 | 12.78° C | 99% | 1010.6 hPa | 0 mm | - | 88 W/m² | - |
| 1777211588 | 12.22° C | 98% | 1011.1 hPa | 0 mm | - | 77 W/m² | - |
| 1777210987 | 12.22° C | 98% | 1010.9 hPa | 0 mm | - | 67 W/m² | - |
| 1777210384 | 12.22° C | 98% | 1011 hPa | 0 mm | - | 55 W/m² | - |
| 1777209782 | 12.22° C | 98% | 1011.1 hPa | 0 mm | - | 50 W/m² | - |
| 1777209179 | 12.22° C | 98% | 1011.2 hPa | 0 mm | - | 37 W/m² | - |
| 1777208578 | 11.67° C | 97% | 1011 hPa | 0 mm | - | 31 W/m² | - |
| 1777207976 | 11.67° C | 97% | 1011.4 hPa | 0 mm | - | 22 W/m² | - |
| 1777207373 | 11.67° C | 97% | 1011.3 hPa | 0 mm | - | 15 W/m² | - |
| 1777206770 | 11.67° C | 97% | 1011.3 hPa | 0 mm | - | 14 W/m² | - |
| 1777206164 | 11.67° C | 97% | 1011.4 hPa | 0 mm | - | 24 W/m² | - |
| 1777205564 | 11.67° C | 96% | 1011.4 hPa | 0 mm | - | 21 W/m² | - |
| 1777204962 | 11.67° C | 96% | 1011.6 hPa | 0 mm | - | 7 W/m² | - |
| 1777204359 | 11.67° C | 96% | 1011.1 hPa | 0 mm | - | 4 W/m² | - |
* Rain latest hour (hover to see other rain measurements)
** Current wind speed in m/s (hover to see current wind gust speed)